Terminal Aerodrome Forecast
Issued by NWS Blacksburg, VA

Home | Current Version | Previous Version | Text Only | Print | Product List | Glossary On
Versions: 1 2 3 4 5 6 7 8 9 10 11 12 13 14 15 16 17 18 19 20 21 22 23 24 25 26 27 28 29 30 31 32 33 34 35
000
FTUS41 KRNK 211720
TAFROA
TAF
KROA 211720Z 2118/2218 25008KT P6SM SCT045
      TEMPO 2122/2124 28015G25KT 5SM TSRA OVC050CB
     FM220000 27006KT P6SM VCTS BKN060CB
     FM220600 27003KT P6SM BKN100
     FM221400 24005KT P6SM BKN035 BKN080=

USA.gov is the U.S. government's official web portal to all federal, state and local government web resources and services.